GFSMW_700_temp_072.txt.gz
Temp
2 2 2 2 2 2 2 2 2 2 3 3 3 3 2 2 2 1 1 1 1 1 1 1 1 0 -0 -1 -1 -1 -2 -2 -2 -1 -1 -1 -1 -1 -2 -2 -2 -2 -2
4 4 4 4 4 3 3 3 3 3 3 3 2 2 2 2 2 1 1 1 2 2 2 1 0 -0 -1 -1 -1 -1 -1 -1 -2 -2 -1 -1 -2 -1 -1 -2 -2 -3 -3
5 5 5 5 4 4 4 3 3 3 3 3 2 2 2 2 2 1 1 1 2 2 1 1 0 -0 -1 -1 -2 -2 -2 -2 -2 -2 -2 -2 -3 -3 -3 -3 -3 -3 -4
6 5 5 5 5 4 4 4 3 3 3 3 2 2 2 1 1 1 1 1 2 1 1 0 -0 -1 -1 -2 -2 -2 -2 -3 -3 -3 -1 -2 -3 -4 -4 -5 -5 -5 -5
6 6 6 5 5 4 4 4 4 3 3 3 3 2 2 2 1 1 0 0 1 1 0 0 -0 -1 -1 -2 -2 -2 -2 -3 -3 -3 -3 -3 -4 -4 -4 -4 -5 -6 -6
6 6 6 6 5 5 4 4 4 3 3 3 3 2 2 2 2 1 1 1 1 1 0 0 -1 -1 -2 -2 -2 -3 -3 -3 -3 -3 -4 -4 -4 -5 -6 -6 -6 -7 -7
7 6 6 6 5 5 5 4 4 3 3 2 2 1 2 2 2 1 1 1 1 0 0 -0 -1 -2 -2 -3 -2 -3 -4 -4 -4 -4 -4 -4 -5 -6 -6 -7 -7 -7 -7
7 6 6 6 6 5 5 4 4 3 3 2 3 2 2 2 1 1 1 0 0 -0 -0 -1 -1 -1 -2 -2 -2 -3 -4 -3 -4 -4 -4 -5 -6 -7 -7 -7 -7 -7 -7
8 7 6 6 6 5 5 4 4 3 3 3 2 2 2 1 2 1 1 -0 -0 -0 -1 -1 -1 -2 -3 -2 -3 -3 -3 -4 -4 -5 -5 -6 -7 -8 -8 -8 -8 -8 -8
8 7 7 7 6 5 5 4 4 3 3 3 2 2 2 1 1 1 0 0 -0 -0 -1 -2 -2 -2 -3 -3 -3 -3 -4 -4 -5 -5 -6 -7 -8 -8 -8 -8 -8 -9 -9
7 7 7 7 6 6 5 4 4 3 3 2 2 2 2 2 1 1 0 -0 -1 -1 -2 -2 -2 -3 -4 -4 -5 -4 -5 -5 -5 -6 -7 -8 -8 -8 -9 -9 -9 -9 -10
7 7 7 7 6 5 5 4 4 3 3 3 2 2 2 1 1 0 -1 -1 -1 -1 -3 -2 -2 -4 -4 -4 -5 -5 -5 -6 -6 -7 -8 -9 -9 -9 -9 -9 -10 -10 -11
6 6 6 6 6 6 5 5 4 3 3 3 2 1 1 0 -1 -1 -2 -1 -1 -2 -4 -3 -4 -4 -5 -5 -5 -6 -6 -7 -7 -8 -9 -9 -9 -10 -10 -10 -11 -11 -13
6 6 6 6 6 6 6 5 5 4 3 3 2 1 1 1 0 -0 -1 -1 -1 -3 -3 -4 -4 -5 -5 -5 -6 -6 -7 -8 -8 -9 -9 -10 -10 -10 -10 -11 -11 -12 -12
6 6 6 6 6 5 5 5 4 4 3 2 2 1 1 0 -0 -1 -1 -1 -3 -3 -4 -4 -5 -5 -5 -6 -7 -7 -8 -8 -9 -9 -10 -10 -10 -10 -11 -12 -12 -13 -13
6 6 6 6 6 5 5 4 4 3 3 2 1 1 0 0 -0 -1 -1 -2 -4 -4 -5 -5 -5 -6 -6 -7 -7 -8 -8 -9 -9 -10 -10 -10 -11 -11 -11 -12 -12 -13 -14
5 5 5 5 6 5 4 3 3 3 3 2 2 1 1 0 -1 -2 -2 -3 -4 -5 -5 -5 -6 -7 -7 -8 -8 -9 -9 -9 -10 -10 -10 -11 -11 -12 -12 -12 -13 -13 -14
5 5 5 5 5 5 4 4 3 3 3 2 1 0 0 -1 -3 -3 -4 -4 -5 -5 -6 -6 -6 -7 -8 -8 -9 -10 -10 -10 -10 -10 -10 -11 -11 -12 -14 -15 -15 -15 -15
4 4 4 4 4 4 4 3 3 3 2 1 0 -0 -2 -3 -3 -4 -4 -5 -5 -5 -6 -7 -7 -8 -8 -9 -10 -10 -10 -10 -10 -10 -11 -11 -12 -13 -15 -15 -16 -16 -16
4 4 4 4 4 3 3 3 2 1 0 -0 -1 -2 -3 -4 -4 -5 -4 -5 -5 -6 -7 -8 -8 -8 -9 -9 -10 -10 -10 -10 -10 -10 -11 -12 -12 -13 -16 -16 -16 -16 -16
3 3 3 2 2 2 2 1 1 -0 -0 -1 -2 -4 -4 -4 -5 -5 -6 -6 -7 -7 -7 -8 -9 -9 -9 -10 -10 -10 -10 -10 -10 -11 -11 -12 -13 -14 -15 -17 -16 -16 -17
2 2 2 1 1 1 0 -0 -1 -1 -2 -3 -4 -5 -5 -5 -6 -6 -6 -7 -7 -8 -8 -9 -9 -9 -10 -10 -10 -10 -10 -11 -11 -11 -12 -13 -14 -15 -15 -17 -16 -16 -16
2 1 1 1 0 -0 -1 -1 -2 -3 -4 -4 -5 -6 -6 -6 -6 -7 -7 -8 -8 -8 -9 -9 -9 -10 -10 -10 -10 -10 -11 -11 -12 -13 -13 -14 -15 -16 -16 -17 -17 -17 -17
1 1 0 0 -0 -1 -2 -3 -3 -4 -5 -5 -6 -6 -6 -7 -7 -7 -8 -8 -9 -9 -9 -10 -10 -10 -10 -10 -11 -11 -11 -12 -13 -14 -15 -16 -16 -16 -17 -17 -17 -17 -18
1 0 -0 -1 -1 -2 -3 -3 -5 -5 -5 -6 -6 -7 -7 -8 -8 -9 -9 -9 -9 -10 -10 -10 -10 -11 -11 -11 -11 -12 -12 -13 -14 -15 -16 -17 -17 -17 -17 -17 -17 -18 -18
0 -0 -1 -1 -2 -3 -4 -5 -5 -6 -6 -6 -7 -8 -8 -9 -9 -9 -9 -10 -10 -10 -11 -11 -11 -11 -11 -12 -12 -12 -13 -14 -15 -16 -17 -18 -18 -18 -17 -17 -18 -18 -18

GFSMW_700_temp_075.txt.gz
Temp
3 3 3 3 2 2 1 1 1 1 1 2 2 2 2 2 1 1 1 1 1 1 1 1 1 1 1 0 -0 -0 -1 -0 -1 -1 -1 -1 0 0 -0 -0 -1 -1 -1
4 4 4 4 3 3 3 2 2 2 2 2 2 2 2 2 2 2 1 1 1 1 1 2 1 1 1 0 -0 -1 -1 -1 -1 -2 -1 -2 -2 -2 -1 -1 -2 -2 -2
5 5 5 4 4 3 3 3 3 2 2 2 2 2 2 2 2 2 2 1 1 1 1 1 1 1 0 -0 -1 -1 -2 -2 -2 -1 -2 -2 -3 -2 -2 -2 -2 -3 -3
5 5 5 5 5 4 4 4 3 2 2 2 3 3 3 2 2 2 1 1 1 1 1 1 1 0 0 -1 -1 -1 -2 -2 -2 -3 -2 -2 -2 -2 -3 -3 -4 -5 -6
5 6 6 6 5 5 5 4 4 4 3 3 3 3 2 2 2 2 1 1 1 0 1 1 1 0 -0 -1 -1 -2 -2 -3 -2 -3 -3 -3 -3 -3 -3 -3 -4 -5 -5
5 5 6 6 5 5 5 4 4 4 4 4 3 3 2 2 2 2 2 1 1 1 1 1 0 -0 -1 -1 -2 -3 -2 -2 -3 -3 -3 -3 -4 -4 -4 -5 -5 -6 -6
6 5 5 5 6 6 5 5 5 4 4 4 3 3 3 2 2 2 2 1 1 1 1 0 0 -0 -1 -1 -2 -2 -3 -2 -3 -4 -3 -4 -4 -4 -4 -5 -6 -6 -6
6 5 5 4 6 6 6 5 5 4 4 4 3 3 2 2 2 2 1 1 1 1 0 0 0 -1 -1 -2 -2 -2 -3 -2 -3 -3 -3 -4 -4 -5 -6 -6 -7 -7 -7
7 6 6 5 5 6 6 5 5 5 4 4 3 3 3 2 2 1 1 1 1 1 0 0 -0 -1 -2 -2 -2 -2 -3 -3 -3 -3 -3 -4 -4 -6 -6 -7 -7 -8 -7
8 7 6 5 5 5 6 5 5 4 4 3 3 3 2 2 2 1 1 1 1 1 0 -0 -1 -2 -2 -2 -2 -3 -4 -4 -4 -4 -4 -5 -6 -7 -7 -7 -8 -8 -8
7 7 7 6 5 4 6 6 5 4 4 4 3 3 2 2 2 2 1 0 -0 1 -0 -1 -1 -1 -2 -2 -3 -4 -5 -5 -5 -5 -5 -5 -6 -7 -7 -8 -9 -9 -9
6 7 7 7 7 6 6 6 5 5 4 4 3 3 2 2 2 1 1 0 0 -1 -1 -1 -2 -3 -3 -4 -4 -5 -5 -5 -5 -5 -6 -6 -7 -8 -8 -9 -9 -9 -10
6 6 6 6 6 6 6 6 5 5 4 4 4 3 2 2 2 2 0 -0 -1 -1 -1 -1 -3 -3 -4 -4 -5 -5 -5 -6 -6 -6 -7 -7 -8 -8 -9 -10 -10 -10 -11
6 6 6 6 6 6 6 5 5 5 4 4 4 3 2 2 2 1 0 -0 -1 -1 -2 -2 -3 -4 -4 -4 -5 -5 -6 -6 -6 -7 -7 -8 -9 -9 -10 -10 -10 -11 -12
6 6 5 5 6 6 6 6 5 5 5 4 4 3 2 2 2 1 0 -1 -1 -1 -2 -3 -3 -5 -5 -5 -5 -6 -6 -7 -7 -7 -8 -9 -9 -9 -10 -10 -10 -11 -12
6 6 6 5 6 6 6 5 5 5 5 4 3 3 3 3 2 1 -0 -1 -1 -1 -2 -4 -4 -5 -5 -5 -5 -6 -7 -7 -7 -8 -9 -9 -10 -10 -10 -11 -11 -11 -12
5 5 5 5 5 5 5 5 5 5 4 3 3 3 2 2 1 0 -1 -1 -1 -2 -3 -4 -4 -4 -5 -5 -6 -7 -7 -7 -8 -9 -9 -9 -10 -10 -11 -11 -12 -14 -15
5 5 5 5 5 5 5 5 5 4 4 3 3 2 2 2 0 -0 -2 -2 -3 -3 -4 -4 -4 -5 -6 -6 -7 -7 -8 -8 -9 -9 -10 -10 -10 -10 -11 -13 -13 -14 -15
4 5 4 5 4 4 4 4 4 4 3 3 3 2 1 0 -1 -2 -3 -3 -4 -4 -5 -4 -5 -6 -7 -7 -7 -8 -8 -9 -9 -10 -10 -10 -10 -11 -12 -12 -13 -14 -14
4 4 4 4 4 4 4 4 3 3 3 2 1 0 -0 -1 -1 -3 -4 -4 -4 -4 -5 -5 -6 -7 -8 -8 -8 -9 -9 -9 -9 -10 -10 -10 -11 -11 -12 -13 -14 -14 -16
4 4 3 3 3 3 3 3 2 2 1 1 -0 -1 -1 -2 -4 -4 -4 -4 -5 -5 -6 -7 -7 -8 -8 -9 -9 -9 -10 -10 -10 -10 -10 -11 -11 -11 -12 -13 -14 -15 -16
3 3 3 3 2 2 2 1 1 1 0 -0 -1 -1 -2 -4 -4 -5 -5 -5 -6 -6 -7 -7 -8 -9 -9 -9 -9 -10 -10 -10 -10 -11 -11 -11 -11 -12 -13 -14 -15 -15 -17
3 3 2 2 2 2 1 1 0 -1 -1 -1 -2 -3 -4 -4 -5 -5 -6 -6 -7 -7 -8 -8 -9 -9 -10 -10 -10 -10 -10 -11 -11 -11 -11 -12 -12 -13 -14 -15 -16 -16 -17
3 2 2 2 1 1 0 -0 -1 -1 -2 -3 -3 -4 -5 -6 -6 -6 -7 -8 -8 -8 -9 -9 -10 -10 -10 -10 -11 -11 -11 -11 -12 -12 -12 -13 -14 -15 -16 -17 -17 -17 -17
2 2 1 1 1 0 -0 -1 -1 -2 -3 -4 -5 -5 -6 -6 -7 -7 -8 -8 -8 -9 -9 -10 -10 -10 -11 -11 -11 -12 -12 -12 -12 -13 -13 -14 -15 -16 -17 -17 -17 -17 -17
1 1 1 0 -0 -1 -1 -2 -3 -4 -5 -5 -6 -6 -7 -7 -8 -8 -9 -9 -9 -10 -10 -10 -11 -11 -11 -12 -12 -12 -13 -13 -14 -14 -14 -15 -16 -16 -17 -18 -18 -18 -18

GFSMW_700_temp_081.txt.gz
Temp
5 4 3 2 1 1 2 2 2 2 2 2 1 1 1 0 -0 -0 -0 -0 0 0 0 1 1 1 1 1 1 0 0 0 -0 -1 -1 -1 -1 -0 -1 -1 -0 -1 -0
6 4 4 4 3 3 3 3 2 2 2 2 2 2 2 1 0 1 1 1 1 0 0 1 1 1 1 1 0 0 -0 0 -0 -1 -1 -2 -2 -1 -1 -1 -1 -1 -1
6 6 5 5 5 4 4 3 4 3 3 3 2 1 1 1 2 2 2 2 1 1 1 1 2 1 2 1 0 0 0 -0 -0 -1 -1 -2 -1 -2 -2 -2 -2 -2 -2
7 6 6 6 5 5 4 4 4 4 4 3 3 3 3 3 3 2 2 2 2 2 1 2 2 2 2 1 1 0 -0 -0 -0 -1 -1 -2 -2 -3 -3 -3 -3 -3 -3
7 7 6 6 5 6 5 5 4 4 5 4 4 4 3 3 2 2 2 2 2 1 1 1 2 2 1 1 1 1 0 -0 -1 -1 -2 -3 -3 -2 -2 -2 -2 -3 -3
7 7 6 6 6 6 5 5 5 5 5 4 4 3 3 3 3 3 3 3 2 1 2 1 1 1 1 1 0 1 0 -1 -1 -2 -2 -3 -3 -3 -3 -3 -3 -2 -2
7 7 7 7 6 6 6 6 6 5 5 5 5 5 4 3 3 3 3 2 2 2 1 1 1 1 1 0 0 -0 -0 -1 -1 -1 -2 -3 -3 -3 -3 -3 -3 -3 -3
7 7 7 7 7 6 6 6 6 5 5 5 4 4 4 4 3 3 3 2 2 1 1 1 1 1 0 0 0 -1 -1 -2 -2 -2 -3 -3 -3 -3 -4 -4 -4 -4 -4
7 7 7 7 7 6 6 6 6 6 5 5 5 5 4 3 3 3 3 2 2 2 1 1 -0 0 -1 -0 0 -1 -2 -2 -2 -2 -2 -3 -3 -3 -4 -5 -5 -5 -4
7 7 7 7 7 6 6 6 6 5 5 5 5 5 4 4 3 3 3 3 2 2 2 2 1 1 -0 -0 -1 -1 -2 -2 -2 -2 -2 -3 -3 -4 -4 -5 -5 -5 -5
8 7 7 6 6 6 6 6 6 6 5 5 5 5 5 4 3 3 2 2 2 2 2 1 1 1 1 -1 -1 -1 -1 -2 -3 -3 -3 -3 -4 -4 -5 -5 -6 -6 -7
7 7 7 6 6 6 6 6 6 6 5 5 4 4 4 4 3 3 2 2 2 2 2 2 1 1 -0 -2 -2 -2 -2 -2 -3 -4 -3 -4 -5 -5 -6 -6 -6 -7 -8
7 7 7 7 6 6 5 5 5 5 5 4 4 4 4 4 3 2 1 2 2 2 1 1 0 -0 -2 -2 -2 -2 -2 -2 -4 -4 -4 -5 -5 -6 -6 -7 -8 -8 -9
7 7 7 6 6 6 6 5 5 4 4 4 3 5 5 4 2 2 2 1 1 1 1 1 -1 -1 -1 -2 -2 -2 -3 -3 -4 -4 -5 -5 -6 -7 -7 -8 -8 -9 -9
7 7 7 6 6 6 5 6 5 5 5 4 4 4 4 3 2 2 2 2 1 1 0 0 -1 -1 -2 -2 -2 -3 -3 -4 -4 -5 -5 -6 -7 -7 -8 -8 -9 -9 -9
7 7 6 6 6 6 5 5 5 5 4 4 4 4 3 3 2 2 2 2 1 1 1 -0 -1 -2 -1 -2 -3 -3 -4 -5 -5 -6 -7 -7 -8 -8 -8 -9 -9 -9 -10
7 7 6 6 6 6 5 5 4 4 4 3 3 3 3 3 3 2 2 2 1 0 -1 -1 -1 -2 -2 -3 -4 -4 -5 -6 -6 -7 -7 -8 -8 -8 -8 -9 -9 -9 -10
7 6 6 6 5 5 5 4 4 4 4 3 3 3 3 3 3 3 2 1 0 -1 -1 -1 -1 -2 -2 -4 -4 -5 -6 -7 -7 -8 -8 -8 -8 -9 -9 -9 -9 -10 -10
6 6 6 5 5 5 4 4 4 4 4 3 3 3 3 3 3 2 2 -0 -1 -1 -1 -2 -2 -4 -5 -5 -5 -6 -7 -7 -8 -8 -8 -8 -9 -9 -9 -10 -10 -10 -11
6 6 5 4 5 4 4 4 4 4 4 4 3 3 3 3 3 1 -1 -2 -2 -2 -3 -3 -4 -5 -5 -6 -6 -7 -8 -8 -8 -8 -9 -9 -10 -10 -10 -10 -11 -11 -11
5 5 4 4 4 4 4 4 3 3 3 3 3 3 2 2 1 -1 -2 -2 -2 -3 -4 -5 -5 -5 -6 -7 -8 -8 -9 -9 -9 -9 -10 -10 -10 -11 -11 -11 -11 -12 -12
5 5 4 4 4 4 3 3 3 3 3 2 2 2 1 0 -1 -2 -2 -2 -4 -5 -5 -5 -5 -6 -6 -8 -9 -11 -10 -10 -10 -10 -10 -10 -11 -11 -12 -12 -12 -13 -13
4 4 4 4 3 3 3 3 3 2 2 2 1 1 0 -1 -2 -2 -2 -4 -5 -5 -5 -6 -6 -7 -9 -11 -12 -12 -12 -11 -10 -10 -11 -11 -11 -12 -12 -13 -13 -14 -14
3 4 4 3 3 3 2 2 2 2 1 1 1 -0 -1 -1 -2 -3 -4 -5 -6 -6 -6 -7 -9 -11 -11 -11 -12 -12 -12 -11 -11 -11 -12 -12 -12 -13 -13 -13 -14 -14 -15
3 3 3 2 2 2 2 2 1 1 1 0 -0 -1 -2 -3 -4 -5 -5 -6 -6 -7 -7 -9 -11 -12 -11 -13 -13 -13 -13 -12 -12 -12 -12 -13 -13 -13 -14 -14 -15 -15 -15
2 2 2 2 2 1 1 1 1 1 0 -0 -1 -3 -4 -5 -5 -5 -6 -7 -8 -9 -10 -10 -10 -12 -13 -14 -13 -13 -14 -13 -13 -13 -13 -14 -14 -14 -15 -15 -15 -16 -16

GFSMW_700_temp_087.txt.gz
Temp
6 6 5 2 2 2 2 2 2 2 2 2 2 2 2 1 1 0 0 -1 -0 -1 -1 0 0 1 1 1 1 1 1 1 1 0 0 0 0 0 0 0 -0 -0 0
6 6 6 6 2 2 2 3 2 1 1 2 2 2 2 1 0 1 0 -0 -1 -2 -0 0 1 1 1 1 1 1 1 0 1 1 0 0 0 0 0 0 -0 -0 -0
7 6 6 6 6 5 4 4 3 2 1 1 1 1 1 0 0 -0 -1 -0 -1 -1 -0 0 1 1 1 1 1 1 0 -0 -0 0 -0 0 1 -0 -0 -1 -1 -1 -1
7 7 6 6 6 5 6 6 5 5 4 1 -0 0 1 0 1 0 -1 -0 -0 -0 1 1 1 1 0 1 1 0 0 -0 -0 -0 -0 0 -0 -0 0 -0 -1 -1 -2
7 7 6 6 6 6 5 5 5 5 5 4 4 4 3 3 3 3 2 2 1 1 1 1 1 1 1 1 1 1 0 0 -1 -1 -1 -1 -1 -1 -1 -2 -1 -1 -2
7 7 7 7 6 6 6 6 5 5 5 4 4 4 3 3 3 3 3 2 1 2 2 2 1 1 1 1 1 1 0 0 0 -0 -0 -0 -1 -1 -2 -2 -2 -3 -3
7 7 7 7 7 7 6 6 6 6 5 5 4 4 4 3 3 3 2 2 2 2 2 1 1 1 1 1 1 1 0 0 -0 -1 -1 -1 -2 -1 -2 -2 -2 -2 -3
8 7 7 7 6 6 6 6 6 6 6 5 5 4 4 4 3 3 3 2 2 2 2 1 1 1 1 1 1 1 1 0 -0 -1 -1 -2 -2 -2 -2 -2 -2 -3 -3
8 8 7 7 6 6 6 6 6 6 6 5 5 5 4 4 4 4 3 3 2 2 2 1 1 1 1 1 1 1 0 -0 -0 -0 -1 -1 -2 -2 -2 -2 -3 -3 -3
8 8 7 7 7 6 6 6 5 5 5 5 5 5 5 4 4 4 4 3 3 2 2 1 1 1 1 0 0 0 -0 -0 -1 -0 -1 -1 -2 -3 -3 -2 -4 -4 -4
8 8 7 7 7 6 6 6 6 5 4 5 4 4 4 4 4 4 4 3 3 2 2 1 1 0 0 0 -0 1 0 0 -0 -1 -2 -2 -3 -3 -3 -3 -4 -5 -5
8 8 7 7 7 7 6 6 6 6 5 4 4 5 4 4 4 3 3 2 2 2 2 0 0 1 1 -0 -0 0 0 -0 -1 -1 -2 -3 -3 -5 -3 -3 -4 -4 -4
8 8 7 7 7 7 6 6 6 6 5 5 5 5 4 4 4 3 3 3 3 2 2 0 1 0 -0 0 0 -0 -0 -0 -1 -2 -2 -3 -3 -4 -4 -3 -4 -5 -5
7 7 7 7 7 6 6 6 6 6 6 6 5 5 4 4 4 3 3 3 2 1 1 0 1 1 1 1 0 0 0 -0 -2 -2 -2 -3 -3 -3 -4 -4 -4 -5 -6
7 7 7 7 7 6 6 6 6 6 6 5 5 5 5 4 3 3 3 2 2 2 1 2 2 2 1 1 1 0 -0 -2 -2 -2 -2 -3 -4 -3 -4 -5 -5 -6 -6
7 7 7 7 7 6 6 6 6 6 5 5 5 4 4 4 3 3 3 2 2 2 2 1 1 1 1 0 -0 -1 -1 -2 -2 -2 -3 -3 -3 -4 -5 -5 -6 -7 -7
7 7 7 7 7 6 6 6 6 6 5 5 4 4 4 3 3 3 2 2 2 2 2 1 1 1 1 0 -0 -1 -1 -2 -2 -3 -3 -4 -5 -6 -6 -6 -7 -8 -8
7 7 7 7 6 6 6 6 5 5 4 4 3 3 3 3 3 2 2 1 1 1 2 1 1 -0 0 -1 -1 -1 -2 -2 -4 -4 -4 -6 -6 -6 -7 -7 -9 -10 -10
7 7 6 6 6 6 6 6 5 4 4 3 3 3 2 2 2 2 2 2 2 2 1 1 0 -0 -0 -1 -1 -2 -3 -3 -4 -5 -6 -7 -7 -8 -9 -10 -10 -11 -12
6 6 6 6 6 6 5 5 4 4 3 3 2 2 2 2 2 2 3 3 3 2 -0 -1 -1 -1 -1 -2 -3 -3 -4 -4 -5 -6 -6 -7 -8 -10 -12 -12 -12 -12 -12
6 5 5 5 5 5 5 5 4 4 3 3 2 2 2 2 2 2 2 2 2 1 0 -2 -3 -4 -4 -3 -3 -4 -4 -5 -5 -6 -7 -7 -10 -12 -13 -13 -12 -12 -13
5 5 5 5 5 4 4 4 4 3 3 3 3 3 2 2 2 2 1 1 1 -0 -2 -3 -3 -3 -4 -3 -4 -5 -5 -6 -6 -7 -9 -10 -12 -12 -12 -12 -13 -14 -14
4 4 4 4 4 4 4 4 3 3 3 2 2 2 2 1 1 1 1 0 -0 -2 -4 -4 -4 -4 -4 -4 -5 -5 -6 -7 -9 -10 -10 -10 -10 -12 -13 -13 -14 -13 -14
4 4 4 4 4 3 3 3 3 2 2 2 1 1 1 1 0 -0 -1 -3 -4 -4 -4 -4 -4 -4 -5 -5 -5 -7 -8 -9 -8 -9 -10 -12 -13 -12 -13 -13 -14 -14 -14
3 3 3 3 3 3 2 2 2 1 1 0 -0 -0 -1 -2 -3 -3 -4 -5 -5 -4 -5 -5 -5 -6 -7 -8 -9 -8 -8 -9 -10 -10 -11 -12 -13 -13 -14 -14 -14 -15 -15
3 3 3 2 2 2 1 1 0 -0 -1 -2 -3 -3 -4 -4 -4 -5 -6 -5 -5 -6 -7 -7 -8 -8 -9 -9 -9 -9 -10 -11 -11 -13 -13 -14 -15 -15 -15 -15 -16 -16 -16

GFSMW_700_temp_090.txt.gz
Temp
6 6 5 4 2 2 3 2 2 2 2 2 2 2 2 1 -1 -1 -0 -1 -1 -2 -2 -2 -2 -2 0 0 1 1 1 0 1 1 1 1 0 1 0 0 0 0 0
6 6 5 6 3 2 3 3 3 2 2 2 2 2 1 -1 -0 -1 -1 -2 -0 -2 -2 -2 -2 -2 0 1 1 1 1 0 1 0 -0 0 1 0 0 0 -0 -0 0
6 6 6 5 6 4 3 3 3 2 2 1 1 1 1 -0 -1 -0 -1 0 -0 -1 -2 -2 -2 -0 0 0 0 0 0 0 0 0 -0 0 1 0 0 0 -0 -0 -0
7 6 6 6 6 6 6 4 3 2 1 2 1 1 2 1 0 -0 -1 -1 -1 -1 -1 -1 -1 -0 0 1 1 0 1 0 1 -0 0 -0 -0 -1 -0 -1 -1 -1 -1
7 6 6 6 6 6 6 6 5 5 3 3 3 1 1 -0 0 -0 -1 -0 -1 -1 -2 -1 -1 0 0 1 1 1 1 1 0 0 -0 -0 -1 -1 -1 -1 -1 -2 -2
7 6 7 7 6 6 6 6 5 5 5 5 4 4 3 2 1 1 1 0 0 0 1 0 0 0 1 1 0 0 0 0 0 0 0 0 -0 -1 -2 -1 -2 -2 -2
7 7 7 6 6 6 6 6 5 5 5 5 5 5 4 4 3 3 3 3 3 3 2 2 2 1 1 1 1 0 0 -0 0 -0 -0 -0 -1 -1 -1 -2 -2 -2 -2
8 7 7 7 6 6 6 6 6 5 5 5 5 5 5 4 4 3 3 3 3 3 2 2 1 1 1 1 1 1 0 0 0 0 -0 -1 -1 -1 -2 -2 -2 -2 -3
8 8 7 7 7 6 6 6 6 5 5 5 5 5 5 4 4 4 4 3 3 2 2 2 1 1 2 1 0 0 0 0 0 -0 -0 0 -1 -1 -1 -1 -2 -3 -3
8 8 7 7 7 6 6 6 6 6 5 5 5 4 4 4 4 3 3 3 2 2 2 1 1 1 -0 0 0 0 0 0 -0 -0 -1 -1 -1 -2 -1 -2 -3 -3 -3
8 8 8 7 7 7 6 6 6 6 5 5 5 4 4 4 4 3 3 3 3 2 2 2 1 1 0 0 0 0 0 -0 -0 -1 -1 -1 -0 -1 -2 -2 -3 -3 -3
8 8 8 7 7 7 6 6 6 5 5 5 5 4 4 4 4 4 3 3 3 2 2 1 1 1 0 -0 -0 -0 0 -0 -0 -0 -1 -1 -1 -1 -2 -2 -3 -3 -3
8 8 7 7 7 7 6 6 6 6 5 5 4 3 3 4 4 4 3 3 2 2 1 1 0 1 1 0 -0 -0 -0 -0 -0 -0 -1 -1 -2 -2 -2 -2 -3 -4 -3
8 7 7 7 7 7 6 6 6 6 6 6 5 5 4 4 4 4 3 3 3 2 2 1 0 1 0 0 1 1 0 -0 -0 -0 -1 -1 -2 -2 -2 -3 -3 -3 -4
7 7 7 7 7 7 6 6 6 6 6 5 5 5 4 4 4 4 3 3 3 2 2 2 1 1 1 1 0 1 0 0 -0 -0 -1 -1 -1 -2 -3 -3 -3 -4 -4
7 7 7 7 7 7 6 6 6 6 6 5 5 5 4 4 4 3 3 3 2 2 2 2 1 1 1 1 1 1 0 0 -0 -1 -1 -1 -2 -2 -3 -3 -4 -5 -5
7 7 7 7 7 7 6 6 6 6 5 5 5 5 4 3 3 3 3 2 2 2 2 1 1 1 1 1 0 0 0 0 -1 -1 -1 -2 -2 -3 -3 -4 -4 -4 -6
7 7 7 7 7 6 6 6 6 6 5 5 5 4 4 3 3 2 2 2 1 1 1 1 1 1 1 0 -0 -0 -0 -1 -1 -1 -2 -2 -3 -4 -4 -4 -5 -6 -7
7 7 7 7 6 6 6 6 6 6 5 4 4 3 3 2 2 2 1 1 1 1 2 2 2 1 -1 -1 -1 -1 -1 -1 -3 -2 -3 -4 -4 -4 -5 -5 -6 -6 -8
7 7 7 6 6 6 6 6 5 5 4 4 3 3 2 2 2 2 1 1 2 2 2 2 1 -0 -3 -2 -2 -2 -2 -2 -3 -3 -4 -4 -4 -5 -6 -6 -7 -8 -9
7 7 6 6 6 5 5 5 5 4 4 4 3 3 2 2 2 2 2 2 2 2 1 1 1 -1 -2 -3 -2 -3 -3 -4 -4 -4 -4 -5 -6 -6 -7 -8 -8 -9 -10
6 6 6 5 5 5 4 4 4 4 3 3 3 2 2 2 2 2 2 1 1 1 0 -1 -3 -4 -4 -3 -3 -4 -4 -4 -5 -5 -6 -6 -7 -8 -9 -9 -9 -10 -11
5 5 5 5 4 4 4 3 3 3 3 2 2 2 2 1 1 1 1 -0 -1 -1 -2 -3 -5 -5 -4 -4 -4 -4 -5 -6 -6 -7 -8 -9 -9 -9 -10 -10 -12 -13 -14
4 4 4 4 3 3 3 3 2 2 2 2 2 1 1 0 -0 -0 -1 -2 -2 -3 -4 -5 -5 -4 -4 -5 -5 -7 -8 -8 -9 -9 -9 -9 -10 -11 -12 -13 -14 -14 -14
2 2 3 3 3 3 2 2 2 1 1 1 1 1 -0 -1 -1 -2 -3 -4 -4 -5 -6 -5 -6 -6 -7 -7 -8 -8 -8 -9 -9 -10 -10 -11 -12 -13 -14 -14 -15 -15 -15
1 0 0 2 2 2 1 1 1 1 0 -0 -0 -1 -2 -2 -3 -4 -5 -5 -6 -6 -7 -7 -7 -8 -8 -8 -9 -9 -10 -10 -10 -11 -12 -13 -14 -14 -15 -15 -16 -16 -17

GFSMW_700_temp_096.txt.gz
Temp
7 7 7 7 6 3 2 3 3 3 3 2 2 2 2 2 2 2 2 1 2 -1 1 1 1 1 1 1 1 -0 -0 -0 0 0 1 0 0 1 0 0 0 0 0
8 7 7 7 6 4 3 3 3 2 4 2 1 2 2 2 2 2 1 1 1 -0 1 1 1 0 0 0 -0 -0 -0 -0 0 -1 0 -0 0 1 1 0 0 0 -0
8 7 7 7 6 5 3 3 3 3 3 2 2 1 1 1 1 1 1 1 1 -1 -0 -1 -1 -1 -1 -1 -1 -1 -1 -1 -0 -0 -0 -0 0 0 0 0 -0 -0 0
8 8 7 7 7 6 5 4 3 3 3 3 2 2 1 1 1 1 1 0 0 -0 -2 -2 -1 -1 -1 -2 -1 -1 -1 -1 -1 -0 -0 -0 -0 0 0 -0 -0 -0 -0
8 8 7 7 7 6 6 5 5 3 3 2 2 2 2 2 1 1 1 1 1 0 -0 -1 -2 -2 -2 -2 -2 -1 -1 -1 -1 -0 -0 -0 -0 -0 -0 -0 -0 -0 -0
8 8 7 7 7 6 6 6 6 5 4 3 2 2 1 1 2 1 1 1 1 0 -0 -1 -1 -1 -1 -1 -2 -1 -1 -1 -1 -1 -0 -0 -1 -0 -1 -1 -0 -1 -1
8 8 7 7 7 6 6 6 6 6 5 5 3 1 1 1 1 1 1 0 1 0 -0 -0 0 -1 -1 -1 -1 -1 -1 -1 -1 -1 -1 -0 -1 -1 -1 -1 -1 -0 -1
8 8 7 7 7 7 6 6 6 6 5 5 5 4 3 3 1 1 0 1 0 -0 -0 -1 -1 -1 -1 -1 0 -1 -1 -1 -1 -1 -1 -1 -1 -1 -1 -1 -1 -0 0
8 8 8 7 7 6 6 6 6 6 6 5 5 5 5 4 4 3 2 0 -0 -1 -1 -1 -0 0 0 0 0 0 0 -0 -0 -0 -0 -0 -0 -1 -1 -1 -1 -0 -1
8 8 8 7 7 6 6 6 6 6 5 5 5 5 5 4 4 4 4 4 3 2 2 2 2 1 1 1 1 1 1 0 0 -0 -0 -0 -1 -1 -1 -1 -1 -1 0
8 8 8 7 7 7 6 6 6 6 6 5 5 5 5 4 4 4 4 4 3 3 3 2 2 2 2 2 1 1 1 0 0 0 -0 -0 -1 -1 -1 -1 -1 -1 -1
8 8 8 7 7 7 7 7 6 6 6 5 5 5 5 4 4 4 4 3 3 3 2 2 2 2 2 1 1 1 0 -0 -0 -0 -1 -1 -1 -0 -0 -1 -1 -1 -1
8 8 8 8 7 7 7 7 6 6 5 5 5 5 5 4 4 4 4 3 3 3 2 2 2 2 1 1 1 1 -0 -0 -0 -0 -0 -0 -0 0 0 -0 -1 -1 -1
8 8 8 7 7 7 7 7 6 6 5 5 5 5 5 4 4 4 3 3 3 2 2 2 1 1 1 1 1 1 1 0 0 0 0 0 0 -0 0 -0 -0 -1 -0
7 8 8 7 7 7 7 7 6 6 6 5 5 5 5 5 4 4 3 3 3 2 2 1 2 2 2 1 1 1 1 1 1 0 1 0 -0 -1 -0 -0 -0 -1 -1
7 7 7 7 7 7 7 7 6 6 6 6 5 5 5 5 5 4 4 3 3 3 2 2 2 2 2 2 2 1 1 1 1 1 1 1 -0 -0 -0 -1 -1 -1 -1
6 7 7 7 7 7 7 7 7 6 6 6 5 5 5 5 5 4 4 4 4 3 3 3 3 3 2 2 2 1 1 1 1 0 -0 -1 -0 -1 -1 -1 -1 -1 -1
6 6 6 6 7 7 7 7 7 6 6 6 6 5 5 5 5 5 4 4 4 3 3 3 2 2 2 2 1 1 0 0 -0 -0 -0 -0 -1 -1 -2 -2 -2 -2 -2
6 6 6 6 7 7 7 7 7 7 6 6 6 6 5 5 5 4 4 3 3 2 2 2 2 1 2 2 1 0 0 1 1 0 -0 -1 -1 -2 -3 -3 -3 -3 -4
5 6 6 7 7 7 7 6 7 7 6 6 6 6 5 5 5 4 4 3 3 2 2 1 1 1 2 0 0 -0 1 -0 -1 -0 -1 -1 -2 -3 -4 -4 -4 -5 -5
5 6 6 7 7 7 7 6 6 6 6 6 6 6 5 5 4 3 3 2 2 2 1 1 0 -0 -0 -0 -0 -0 -1 -1 -1 -2 -3 -4 -4 -4 -5 -6 -6 -7 -7
4 5 6 7 7 7 6 5 6 6 6 5 5 5 5 4 4 3 3 2 2 1 1 0 -0 -0 -1 -1 -1 -2 -3 -4 -5 -5 -5 -5 -6 -7 -7 -7 -8 -8 -8
4 5 6 6 6 6 6 4 5 5 5 5 4 4 4 3 3 2 2 2 1 1 0 -0 -1 -2 -3 -4 -5 -5 -5 -5 -6 -6 -6 -7 -7 -8 -8 -8 -9 -9 -10
4 4 4 3 4 4 4 4 4 4 4 3 3 3 2 2 1 1 1 0 -0 -1 -1 -2 -3 -4 -5 -5 -6 -6 -6 -7 -7 -7 -8 -8 -8 -9 -10 -10 -10 -11 -12
1 2 2 3 3 3 3 4 4 3 3 3 2 1 1 1 0 -1 -1 -1 -2 -3 -4 -4 -5 -6 -6 -6 -7 -7 -7 -8 -8 -9 -9 -9 -9 -10 -11 -12 -13 -13 -14
-1 -0 1 0 0 1 2 2 2 2 2 1 -0 -1 -1 -1 -2 -2 -2 -3 -4 -5 -5 -6 -6 -6 -7 -7 -8 -8 -8 -8 -9 -9 -10 -10 -11 -12 -13 -15 -16 -17 -18

GFSMW_700_temp_102.txt.gz
Temp
9 8 7 8 8 7 8 7 6 4 4 4 4 4 4 4 3 3 2 2 2 2 2 1 0 1 1 1 1 2 2 1 1 1 1 1 1 1 1 1 1 1 1
9 8 8 8 8 7 8 7 6 5 5 4 4 3 3 3 2 2 2 2 2 2 1 1 -0 -0 1 1 0 1 1 1 0 1 1 1 1 1 0 0 0 0 0
9 8 8 8 8 7 7 7 6 5 4 4 4 4 2 2 2 2 3 2 2 2 2 2 1 1 -0 -0 -1 1 1 0 0 0 0 1 1 1 0 0 0 0 0
9 8 8 8 8 7 7 7 7 5 4 4 4 5 4 2 2 2 2 3 2 2 2 2 2 1 -0 -1 -0 -1 -1 -2 -1 -0 -0 0 1 1 1 1 1 0 -0
9 8 8 8 8 7 7 7 7 6 5 4 3 3 2 2 2 2 3 2 3 2 2 1 1 0 0 -2 -1 -2 -2 -1 -2 -2 -1 -1 -0 0 -0 1 1 0 0
9 8 7 8 8 7 7 7 7 7 6 5 3 3 2 2 2 2 2 2 2 2 2 2 1 0 0 -1 -1 -2 -2 -2 -1 -1 -1 -1 -1 -0 -0 0 0 -0 0
9 8 8 8 8 7 7 7 7 7 6 5 4 2 2 2 2 1 2 2 2 2 2 1 1 0 0 -0 -0 -2 -2 -2 -2 -2 -1 -1 -1 -1 -0 0 0 0 0
8 7 8 8 8 7 7 7 6 7 6 6 5 3 2 2 2 2 2 2 1 1 1 0 0 0 -0 -0 -0 -0 -1 -2 -2 -2 -2 -1 -1 -1 0 0 0 1 0
8 7 7 8 8 7 7 7 6 6 6 6 6 5 4 3 2 2 2 2 1 1 1 1 0 0 -0 -0 -0 -0 -0 -1 -1 -2 -1 -1 -0 -0 0 1 1 0 0
8 7 6 8 8 7 7 7 7 6 6 6 6 5 5 4 3 2 2 1 1 1 1 0 0 0 -0 -0 -1 -1 -1 -1 -1 -1 0 1 1 1 1 0 -0 -0 -0
8 8 7 8 8 7 7 7 7 6 6 6 6 6 5 5 5 4 3 2 1 1 1 1 0 -0 -0 -0 -0 -1 -1 -1 1 1 1 1 1 0 0 -0 -0 -0 -0
8 8 7 7 8 8 7 7 6 6 6 6 6 5 5 5 5 4 4 3 3 3 2 2 1 1 1 0 0 0 1 1 1 1 1 1 0 0 0 0 -0 -0 -0
7 7 7 6 8 8 7 7 7 6 6 6 6 5 5 5 5 5 4 4 4 3 3 3 3 3 2 2 2 1 1 1 1 1 1 0 -0 0 -0 -1 -1 -1 -1
7 7 6 6 7 8 8 7 7 7 6 6 6 5 5 5 5 4 4 4 3 3 3 3 2 2 2 1 1 1 1 1 0 0 0 1 1 0 -0 1 -0 -0 -1
6 6 6 6 6 7 8 7 7 7 6 6 6 6 5 5 4 4 4 4 3 3 2 2 2 1 1 2 2 1 1 1 1 0 0 0 0 -0 0 -0 0 0 -1
6 5 7 6 5 7 8 7 7 7 7 6 6 6 5 5 4 4 4 4 3 3 3 2 2 3 3 3 2 1 0 0 0 0 0 -0 0 0 -1 -0 -1 -1 -1
5 6 6 5 6 6 7 7 7 7 7 7 6 6 6 5 5 4 4 4 4 4 4 3 3 3 3 2 2 2 1 0 -1 -0 1 0 0 -0 -1 -1 -1 -1 -1
5 6 6 6 5 5 6 7 7 7 7 7 6 6 6 5 5 5 5 5 5 4 4 4 3 3 3 3 3 1 0 -0 0 0 0 -1 0 -1 -1 -1 -1 -2 -2
5 5 6 6 5 5 5 6 6 7 7 6 6 6 6 6 6 5 5 5 5 5 4 4 4 3 2 1 1 0 -0 -0 1 0 0 -0 -1 -1 -1 -1 -2 -2 -3
5 5 5 5 5 5 4 6 5 6 6 6 6 6 6 6 6 5 5 5 5 4 4 3 2 1 1 0 0 1 1 0 -0 -1 -2 -1 -2 -2 -3 -3 -3 -4 -4
3 4 5 5 5 5 5 5 6 6 6 6 6 6 6 6 5 5 4 4 4 3 3 2 0 1 0 1 1 0 -0 -1 -1 -1 -1 -2 -2 -3 -4 -4 -5 -5 -6
3 3 4 4 4 4 4 4 5 6 6 6 6 6 5 4 4 4 3 3 1 1 1 1 0 1 0 0 -1 -2 -2 -2 -2 -2 -3 -3 -4 -5 -5 -5 -5 -6 -6
3 3 3 4 4 4 4 4 4 5 5 5 5 5 4 4 4 4 1 1 0 0 0 -0 -1 -1 -1 -1 -1 -1 -2 -2 -3 -4 -4 -5 -6 -6 -5 -6 -6 -7 -7
2 2 3 3 4 4 4 4 4 4 5 5 4 4 4 3 3 3 2 1 -0 -1 -1 -1 -2 -2 -2 -2 -3 -3 -4 -4 -5 -5 -5 -5 -6 -7 -7 -7 -8 -9 -10
0 1 2 3 3 3 3 3 4 4 4 4 3 1 0 -1 -1 1 -0 -1 -1 -2 -3 -3 -3 -3 -3 -4 -5 -5 -5 -5 -6 -6 -6 -6 -7 -8 -9 -10 -10 -11 -12
-1 -1 1 1 2 2 1 0 -0 -0 -0 0 -0 -1 -1 -0 -2 -2 -0 -2 -3 -4 -4 -4 -4 -5 -5 -5 -5 -6 -6 -6 -6 -7 -7 -8 -9 -10 -11 -12 -13 -14 -15

GFSMW_700_temp_105.txt.gz
Temp
9 9 9 9 9 8 8 7 7 6 5 4 4 4 4 3 3 3 3 3 3 2 2 1 1 1 1 2 2 2 2 2 1 1 1 1 1 1 1 2 2 2 1
10 10 9 9 8 8 8 8 7 6 5 4 4 3 3 3 3 3 3 3 2 2 2 2 1 1 1 1 1 1 1 1 1 1 1 1 1 1 1 0 1 1 1
9 9 9 9 8 8 8 8 7 6 5 4 4 3 3 4 3 2 2 2 2 2 2 1 1 1 1 1 1 0 -0 1 1 1 1 1 1 1 1 0 0 0 1
9 9 9 9 9 8 7 8 7 7 5 4 4 4 4 4 2 2 3 2 3 2 3 2 2 2 1 1 1 0 0 0 -0 0 -1 -1 -1 0 0 0 -0 0 0
9 9 9 9 8 8 7 7 7 7 6 5 4 4 3 3 3 2 2 3 2 2 2 2 1 2 1 1 1 0 -1 -2 -1 -1 -2 -2 -1 -1 -0 -0 -1 -0 0
10 9 9 9 8 8 7 7 7 7 6 5 4 3 3 3 3 2 2 2 2 2 2 2 2 1 2 1 1 -0 -1 -1 -2 -1 -2 -1 -2 -2 -1 -1 -1 -1 -0
10 9 9 9 9 8 7 7 7 7 7 6 4 3 2 2 3 2 2 2 2 2 2 2 1 1 1 1 0 -1 -1 -1 -1 -1 -1 -2 -2 -2 -2 -2 -1 -1 -1
10 9 9 9 9 8 7 7 7 7 7 6 5 3 2 2 2 2 3 3 1 2 2 2 2 1 1 -0 -0 -1 -1 -1 -1 -1 -2 -2 -2 -2 -2 -1 -1 -0 -0
9 9 8 8 8 8 7 7 7 7 7 6 6 4 2 2 2 2 1 2 2 2 1 2 2 0 -0 -1 -0 -0 -0 -1 -1 -1 -1 -1 -1 -1 -1 -1 -1 -1 0
8 8 8 8 8 7 7 7 6 6 6 6 6 5 4 3 3 2 2 2 1 1 1 1 0 0 0 0 -0 -0 -1 -0 -1 -1 -1 -1 -1 -1 -1 -1 -0 -0 -0
9 8 8 8 8 7 7 7 6 6 6 6 6 6 6 5 4 3 3 2 1 1 1 1 1 1 -0 -0 -0 -0 -0 -1 -1 -1 -1 -1 -1 -1 -0 0 -0 0 0
7 8 8 8 8 7 7 7 6 6 6 6 6 6 6 5 5 5 3 3 2 2 1 1 1 0 -1 -0 -1 -0 -0 -1 -1 -1 -1 -0 -0 1 0 0 1 0 -0
4 4 7 7 8 8 7 7 7 6 6 6 6 5 5 5 5 5 5 4 4 3 3 3 2 1 1 1 1 0 -0 -0 -0 -1 -1 -1 1 1 1 0 0 0 -0
5 5 6 7 7 7 7 7 7 6 6 6 6 5 5 5 5 5 4 4 4 3 3 3 3 2 2 2 1 1 1 -0 -1 -1 0 1 0 0 0 0 -0 -1 -1
5 5 4 5 7 6 7 7 6 6 6 6 6 5 5 5 5 4 4 4 4 3 3 3 2 2 2 2 2 1 0 -0 -0 -0 -0 -1 -1 -1 -0 -0 0 0 -1
4 5 5 4 4 6 7 7 7 7 7 6 6 6 5 5 4 4 4 4 3 3 3 3 3 3 3 2 2 2 1 1 -1 -1 -0 -0 0 -0 -0 -1 -0 -1 -1
5 6 5 5 4 4 6 7 7 7 7 6 6 6 5 5 4 4 3 3 3 3 3 3 3 3 3 2 2 1 -0 -1 -1 -0 -1 -0 -0 -1 -0 -1 -1 -1 -1
4 6 5 5 5 5 4 5 6 7 7 6 6 6 6 6 5 5 5 4 4 4 4 4 3 3 3 2 1 -0 -1 -1 -1 -0 0 -0 -0 -0 -1 -1 -2 -2 -2
3 4 4 4 5 5 5 2 5 6 6 6 6 6 6 6 6 6 5 5 5 4 4 3 3 3 2 2 1 -0 -1 0 0 -0 0 -0 -0 -2 -1 -1 -2 -2 -2
3 4 4 5 4 4 5 5 4 5 6 6 6 6 6 6 6 6 5 5 4 4 3 3 2 0 0 -0 0 0 -0 0 -0 0 -1 -2 -2 -3 -3 -3 -3 -3 -4
2 3 3 4 4 4 3 3 4 5 5 5 5 5 6 6 5 5 5 5 4 3 1 0 0 1 0 0 0 -0 -0 -1 -0 -1 -2 -2 -3 -3 -3 -4 -4 -5 -5
3 3 3 3 3 3 3 3 3 3 4 3 4 5 4 4 4 3 1 3 2 1 1 1 1 0 0 -1 -1 -1 -2 -2 -2 -3 -3 -3 -4 -4 -4 -4 -5 -5 -6
2 3 3 2 3 3 3 3 3 3 3 3 3 3 3 3 3 2 2 1 2 1 1 1 -0 -1 -1 -1 -2 -2 -2 -2 -4 -4 -4 -4 -5 -5 -5 -5 -6 -6 -7
-0 0 2 2 3 3 3 3 3 3 3 3 3 3 3 3 2 1 1 1 1 1 0 -0 -1 -1 -2 -2 -3 -4 -4 -5 -6 -6 -5 -5 -5 -6 -7 -7 -8 -9 -10
-0 -0 0 1 2 2 3 3 3 3 3 3 2 1 0 0 1 1 1 0 0 -1 -1 -2 -2 -2 -3 -4 -5 -5 -6 -6 -6 -6 -6 -7 -7 -8 -9 -9 -10 -11 -12
-2 -1 -1 -1 1 2 2 2 2 2 1 0 1 1 1 1 0 -0 -0 -0 -1 -2 -2 -3 -4 -5 -5 -5 -7 -7 -6 -6 -7 -7 -7 -8 -9 -9 -10 -11 -12 -13 -14